Location: Unspecified
(0.0000°N, 0.0000°E)
Time: 20:56:22
(UTC+00:00)

S-56A Canister/Altair - Visible Passes

Search period start: 23 February 2017 00:00
Search period end: 05 March 2017 00:00
Orbit: 639 x 2495 km, 38.9° (Epoch: 21 February)

Date Brightness Start Highest point End Pass type
(mag) Time Alt. Az. Time Alt. Az. Time Alt. Az.
23 Feb 10.9 01:56:44 33° SE 01:56:44 33° SE 02:02:42 10° SE visible
23 Feb 10.5 03:54:11 32° SW 03:55:07 32° SW 04:06:27 10° SSE visible
24 Feb 11.3 01:26:07 22° SE 01:26:07 22° SE 01:29:37 10° SE visible
24 Feb 10.5 03:23:34 36° SSW 03:23:34 36° SSW 03:34:02 10° SSE visible
25 Feb 11.6 00:55:27 13° SE 00:55:27 13° SE 00:56:22 10° SE visible
25 Feb 10.6 02:52:53 35° S 02:52:53 35° S 03:01:28 10° SSE visible
25 Feb 11.3 04:52:33 10° SW 04:56:46 12° SSW 05:00:47 10° SSW visible
26 Feb 10.9 02:22:10 31° S 02:22:10 31° S 02:28:45 10° SSE visible
26 Feb 11.2 04:19:36 13° SW 04:23:18 14° SSW 04:29:47 10° S visible
27 Feb 11.2 01:51:23 24° SSE 01:51:23 24° SSE 01:55:56 10° SSE visible
27 Feb 11.1 03:48:49 17° SW 03:49:48 17° SSW 03:58:01 10° S visible
28 Feb 11.5 01:20:33 17° SSE 01:20:33 17° SSE 01:22:57 10° SE visible
28 Feb 11.1 03:17:58 20° SSW 03:17:58 20° SSW 03:25:52 10° S visible
01 Mar 11.7 00:49:40 11° SE 00:49:40 11° SE 00:49:53 10° SE visible
01 Mar 11.2 02:47:06 21° SSW 02:47:06 21° SSW 02:53:29 10° SSE visible
02 Mar 11.3 02:16:11 19° S 02:16:11 19° S 02:20:54 10° SSE visible
03 Mar 11.5 01:45:14 16° SSE 01:45:14 16° SSE 01:48:10 10° SSE visible
03 Mar 10.7 20:42:09 10° N 20:43:02 13° N 20:43:02 13° N visible
04 Mar 11.7 01:14:15 12° SSE 01:14:15 12° SSE 01:15:18 10° SSE visible
04 Mar 11.5 03:11:41 10° SSW 03:12:12 10° SSW 03:14:37 10° SSW visible
04 Mar 10.5 20:10:36 10° N 20:12:39 15° NNE 20:12:39 15° NNE visible
